Year,Month,Day,Hour,Minute,Value (Times are PST for barometer in hPa)
2021,10,24,00,00,997.02
2021,10,24,00,01,997.02
2021,10,24,00,02,996.99
2021,10,24,00,03,996.99
2021,10,24,00,04,996.99
2021,10,24,00,05,996.99
2021,10,24,00,06,996.95
2021,10,24,00,07,996.92
2021,10,24,00,08,996.92
2021,10,24,00,09,996.85
2021,10,24,00,10,996.85
2021,10,24,00,11,996.89
2021,10,24,00,12,996.85
2021,10,24,00,13,996.82
2021,10,24,00,14,996.82
2021,10,24,00,15,996.78
2021,10,24,00,16,996.75
2021,10,24,00,17,996.75
2021,10,24,00,18,996.68
2021,10,24,00,19,996.68
2021,10,24,00,20,996.65
2021,10,24,00,21,996.55
2021,10,24,00,22,996.55
2021,10,24,00,23,996.51
2021,10,24,00,24,996.51
2021,10,24,00,25,996.48
2021,10,24,00,26,996.48
2021,10,24,00,27,996.48
2021,10,24,00,28,996.48
2021,10,24,00,29,996.45
2021,10,24,00,30,996.48
2021,10,24,00,31,996.45
2021,10,24,00,32,996.45
2021,10,24,00,33,996.41
2021,10,24,00,34,996.38
2021,10,24,00,35,996.41
2021,10,24,00,36,996.31
2021,10,24,00,37,996.31
2021,10,24,00,38,996.28
2021,10,24,00,39,996.24
2021,10,24,00,40,996.24
2021,10,24,00,41,996.21
2021,10,24,00,42,996.17
2021,10,24,00,43,996.17
2021,10,24,00,44,996.17
2021,10,24,00,45,996.11
2021,10,24,00,46,996.11
2021,10,24,00,47,996.11
2021,10,24,00,48,996.11
2021,10,24,00,49,996.11
2021,10,24,00,50,996.07
2021,10,24,00,51,996.11
2021,10,24,00,52,996.04
2021,10,24,00,53,996.07
2021,10,24,00,54,996.04
2021,10,24,00,55,996.01
2021,10,24,00,56,995.94
2021,10,24,00,57,995.93
2021,10,24,00,58,995.84
2021,10,24,00,59,995.77
2021,10,24,01,00,995.73
2021,10,24,01,01,995.70
2021,10,24,01,02,995.70
2021,10,24,01,03,995.66
2021,10,24,01,04,995.56
2021,10,24,01,05,995.63
2021,10,24,01,06,995.60
2021,10,24,01,07,995.56
2021,10,24,01,08,995.50
2021,10,24,01,09,995.53
2021,10,24,01,10,995.53
2021,10,24,01,11,995.53
2021,10,24,01,12,995.50
2021,10,24,01,13,995.50
2021,10,24,01,14,995.46
2021,10,24,01,15,995.43
2021,10,24,01,16,995.40
2021,10,24,01,17,995.40
2021,10,24,01,18,995.39
2021,10,24,01,19,995.29
2021,10,24,01,20,995.33
2021,10,24,01,21,995.26
2021,10,24,01,22,995.26
2021,10,24,01,23,995.19
2021,10,24,01,24,995.18
2021,10,24,01,25,995.09
2021,10,24,01,26,995.09
2021,10,24,01,27,995.06
2021,10,24,01,28,995.06
2021,10,24,01,29,995.02
2021,10,24,01,30,994.99
2021,10,24,01,31,994.96
2021,10,24,01,32,994.96
2021,10,24,01,33,994.89
2021,10,24,01,34,994.89
2021,10,24,01,35,994.85
2021,10,24,01,36,994.92
2021,10,24,01,37,994.85
2021,10,24,01,38,994.85
2021,10,24,01,39,994.79
2021,10,24,01,40,994.82
2021,10,24,01,41,994.82
2021,10,24,01,42,994.79
2021,10,24,01,43,994.72
2021,10,24,01,44,994.72
2021,10,24,01,45,994.68
2021,10,24,01,46,994.68
2021,10,24,01,47,994.65
2021,10,24,01,48,994.65
2021,10,24,01,49,994.68
2021,10,24,01,50,994.65
2021,10,24,01,51,994.65
2021,10,24,01,52,994.68
2021,10,24,01,53,994.65
2021,10,24,01,54,994.62
2021,10,24,01,55,994.62
2021,10,24,01,56,994.65
2021,10,24,01,57,994.68
2021,10,24,01,58,994.68
2021,10,24,01,59,994.68
2021,10,24,02,00,994.72
2021,10,24,02,01,994.75
2021,10,24,02,02,994.75
2021,10,24,02,03,994.72
2021,10,24,02,04,994.72
2021,10,24,02,05,994.65
2021,10,24,02,06,994.62
2021,10,24,02,07,994.58
2021,10,24,02,08,994.55
2021,10,24,02,09,994.52
2021,10,24,02,10,994.52
2021,10,24,02,11,994.52
2021,10,24,02,12,994.52
2021,10,24,02,13,994.52
2021,10,24,02,14,994.52
2021,10,24,02,15,994.52
2021,10,24,02,16,994.48
2021,10,24,02,17,994.52
2021,10,24,02,18,994.47
2021,10,24,02,19,994.38
2021,10,24,02,20,994.38
2021,10,24,02,21,994.38
2021,10,24,02,22,994.38
2021,10,24,02,23,994.35
2021,10,24,02,24,994.28
2021,10,24,02,25,994.28
2021,10,24,02,26,994.24
2021,10,24,02,27,994.24
2021,10,24,02,28,994.24
2021,10,24,02,29,994.24
2021,10,24,02,30,994.18
2021,10,24,02,31,994.14
2021,10,24,02,32,994.04
2021,10,24,02,33,993.97
2021,10,24,02,34,993.94
2021,10,24,02,35,993.94
2021,10,24,02,36,993.94
2021,10,24,02,37,993.97
2021,10,24,02,38,993.91
2021,10,24,02,39,993.94
2021,10,24,02,40,993.91
2021,10,24,02,41,993.91
2021,10,24,02,42,993.87
2021,10,24,02,43,993.91
2021,10,24,02,44,993.84
2021,10,24,02,45,993.80
2021,10,24,02,46,993.84
2021,10,24,02,47,993.84
2021,10,24,02,48,993.77
2021,10,24,02,49,993.74
2021,10,24,02,50,993.67
2021,10,24,02,51,993.67
2021,10,24,02,52,993.60
2021,10,24,02,53,993.53
2021,10,24,02,54,993.57
2021,10,24,02,55,993.50
2021,10,24,02,56,993.50
2021,10,24,02,57,993.43
2021,10,24,02,58,993.43
2021,10,24,02,59,993.36
2021,10,24,03,00,993.33
2021,10,24,03,01,993.30
2021,10,24,03,02,993.26
2021,10,24,03,03,993.23
2021,10,24,03,04,993.19
2021,10,24,03,05,993.23
2021,10,24,03,06,993.19
2021,10,24,03,07,993.19
2021,10,24,03,08,993.19
2021,10,24,03,09,993.13
2021,10,24,03,10,993.13
2021,10,24,03,11,993.06
2021,10,24,03,12,993.06
2021,10,24,03,13,993.03
2021,10,24,03,14,992.99
2021,10,24,03,15,992.99
2021,10,24,03,16,992.92
2021,10,24,03,17,992.86
2021,10,24,03,18,992.82
2021,10,24,03,19,992.82
2021,10,24,03,20,992.79
2021,10,24,03,21,992.78
2021,10,24,03,22,992.69
2021,10,24,03,23,992.62
2021,10,24,03,24,992.62
2021,10,24,03,25,992.62
2021,10,24,03,26,992.58
2021,10,24,03,27,992.48
2021,10,24,03,28,992.48
2021,10,24,03,29,992.48
2021,10,24,03,30,992.48
2021,10,24,03,31,992.42
2021,10,24,03,32,992.38
2021,10,24,03,33,992.38
2021,10,24,03,34,992.38
2021,10,24,03,35,992.35
2021,10,24,03,36,992.31
2021,10,24,03,37,992.31
2021,10,24,03,38,992.28
2021,10,24,03,39,992.28
2021,10,24,03,40,992.25
2021,10,24,03,41,992.21
2021,10,24,03,42,992.25
2021,10,24,03,43,992.18
2021,10,24,03,44,992.14
2021,10,24,03,45,992.14
2021,10,24,03,46,992.04
2021,10,24,03,47,991.97
2021,10,24,03,48,991.87
2021,10,24,03,49,991.84
2021,10,24,03,50,991.73
2021,10,24,03,51,991.60
2021,10,24,03,52,991.57
2021,10,24,03,53,991.50
2021,10,24,03,54,991.50
2021,10,24,03,55,991.53
2021,10,24,03,56,991.50
2021,10,24,03,57,991.47
2021,10,24,03,58,991.47
2021,10,24,03,59,991.40
2021,10,24,04,00,991.40
2021,10,24,04,01,991.40
2021,10,24,04,02,991.40
2021,10,24,04,03,991.36
2021,10,24,04,04,991.26
2021,10,24,04,05,991.23
2021,10,24,04,06,991.16
2021,10,24,04,07,991.09
2021,10,24,04,08,991.09
2021,10,24,04,09,991.03
2021,10,24,04,10,991.06
2021,10,24,04,11,991.06
2021,10,24,04,12,990.99
2021,10,24,04,13,990.93
2021,10,24,04,14,990.89
2021,10,24,04,15,990.86
2021,10,24,04,16,990.79
2021,10,24,04,17,990.79
2021,10,24,04,18,990.76
2021,10,24,04,19,990.79
2021,10,24,04,20,990.79
2021,10,24,04,21,990.79
2021,10,24,04,22,990.79
2021,10,24,04,23,990.72
2021,10,24,04,24,990.64
2021,10,24,04,25,990.52
2021,10,24,04,26,990.48
2021,10,24,04,27,990.38
2021,10,24,04,28,990.38
2021,10,24,04,29,990.38
2021,10,24,04,30,990.35
2021,10,24,04,31,990.28
2021,10,24,04,32,990.25
2021,10,24,04,33,990.21
2021,10,24,04,34,990.21
2021,10,24,04,35,990.21
2021,10,24,04,36,990.15
2021,10,24,04,37,990.11
2021,10,24,04,38,990.04
2021,10,24,04,39,989.98
2021,10,24,04,40,989.91
2021,10,24,04,41,989.91
2021,10,24,04,42,989.81
2021,10,24,04,43,989.81
2021,10,24,04,44,989.74
2021,10,24,04,45,989.67
2021,10,24,04,46,989.64
2021,10,24,04,47,989.54
2021,10,24,04,48,989.40
2021,10,24,04,49,989.33
2021,10,24,04,50,989.27
2021,10,24,04,51,989.27
2021,10,24,04,52,989.27
2021,10,24,04,53,989.33
2021,10,24,04,54,989.37
2021,10,24,04,55,989.37
2021,10,24,04,56,989.37
2021,10,24,04,57,989.40
2021,10,24,04,58,989.40
2021,10,24,04,59,989.37
2021,10,24,05,00,989.33
2021,10,24,05,01,989.33
2021,10,24,05,02,989.30
2021,10,24,05,03,989.27
2021,10,24,05,04,989.30
2021,10,24,05,05,989.33
2021,10,24,05,06,989.37
2021,10,24,05,07,989.44
2021,10,24,05,08,989.40
2021,10,24,05,09,989.44
2021,10,24,05,10,989.40
2021,10,24,05,11,989.40
2021,10,24,05,12,989.33
2021,10,24,05,13,989.33
2021,10,24,05,14,989.33
2021,10,24,05,15,989.30
2021,10,24,05,16,989.27
2021,10,24,05,17,989.30
2021,10,24,05,18,989.26
2021,10,24,05,19,989.16
2021,10,24,05,20,989.15
2021,10,24,05,21,989.03
2021,10,24,05,22,989.03
2021,10,24,05,23,989.03
2021,10,24,05,24,988.96
2021,10,24,05,25,988.89
2021,10,24,05,26,988.83
2021,10,24,05,27,988.79
2021,10,24,05,28,988.79
2021,10,24,05,29,988.78
2021,10,24,05,30,988.69
2021,10,24,05,31,988.62
2021,10,24,05,32,988.69
2021,10,24,05,33,988.69
2021,10,24,05,34,988.62
2021,10,24,05,35,988.62
2021,10,24,05,36,988.59
2021,10,24,05,37,988.66
2021,10,24,05,38,988.55
2021,10,24,05,39,988.55
2021,10,24,05,40,988.52
2021,10,24,05,41,988.48
2021,10,24,05,42,988.39
2021,10,24,05,43,988.39
2021,10,24,05,44,988.32
2021,10,24,05,45,988.25
2021,10,24,05,46,988.32
2021,10,24,05,47,988.22
2021,10,24,05,48,988.28
2021,10,24,05,49,988.18
2021,10,24,05,50,988.11
2021,10,24,05,51,988.08
2021,10,24,05,52,988.11
2021,10,24,05,53,988.10
2021,10,24,05,54,988.01
2021,10,24,05,55,988.05
2021,10,24,05,56,988.05
2021,10,24,05,57,988.01
2021,10,24,05,58,988.08
2021,10,24,05,59,988.01
2021,10,24,06,00,987.95
2021,10,24,06,01,987.91
2021,10,24,06,02,987.83
2021,10,24,06,03,987.70
2021,10,24,06,04,987.57
2021,10,24,06,05,987.61
2021,10,24,06,06,987.57
2021,10,24,06,07,987.51
2021,10,24,06,08,987.47
2021,10,24,06,09,987.47
2021,10,24,06,10,987.44
2021,10,24,06,11,987.37
2021,10,24,06,12,987.30
2021,10,24,06,13,987.27
2021,10,24,06,14,987.23
2021,10,24,06,15,987.17
2021,10,24,06,16,987.13
2021,10,24,06,17,987.10
2021,10,24,06,18,987.03
2021,10,24,06,19,986.96
2021,10,24,06,20,986.90
2021,10,24,06,21,986.86
2021,10,24,06,22,986.83
2021,10,24,06,23,986.73
2021,10,24,06,24,986.69
2021,10,24,06,25,986.69
2021,10,24,06,26,986.62
2021,10,24,06,27,986.52
2021,10,24,06,28,986.46
2021,10,24,06,29,986.42
2021,10,24,06,30,986.35
2021,10,24,06,31,986.29
2021,10,24,06,32,986.29
2021,10,24,06,33,986.29
2021,10,24,06,34,986.25
2021,10,24,06,35,986.22
2021,10,24,06,36,986.22
2021,10,24,06,37,986.18
2021,10,24,06,38,986.18
2021,10,24,06,39,986.08
2021,10,24,06,40,986.08
2021,10,24,06,41,986.08
2021,10,24,06,42,986.05
2021,10,24,06,43,985.98
2021,10,24,06,44,985.95
2021,10,24,06,45,985.88
2021,10,24,06,46,985.88
2021,10,24,06,47,985.85
2021,10,24,06,48,985.78
2021,10,24,06,49,985.71
2021,10,24,06,50,985.57
2021,10,24,06,51,985.54
2021,10,24,06,52,985.51
2021,10,24,06,53,985.51
2021,10,24,06,54,985.44
2021,10,24,06,55,985.41
2021,10,24,06,56,985.34
2021,10,24,06,57,985.34
2021,10,24,06,58,985.34
2021,10,24,06,59,985.30
2021,10,24,07,00,985.24
2021,10,24,07,01,985.24
2021,10,24,07,02,985.17
2021,10,24,07,03,985.17
2021,10,24,07,04,985.13
2021,10,24,07,05,985.12
2021,10,24,07,06,985.03
2021,10,24,07,07,985.07
2021,10,24,07,08,985.00
2021,10,24,07,09,984.97
2021,10,24,07,10,984.93
2021,10,24,07,11,984.93
2021,10,24,07,12,984.93
2021,10,24,07,13,984.90
2021,10,24,07,14,984.80
2021,10,24,07,15,984.80
2021,10,24,07,16,984.80
2021,10,24,07,17,984.69
2021,10,24,07,18,984.66
2021,10,24,07,19,984.66
2021,10,24,07,20,984.59
2021,10,24,07,21,984.49
2021,10,24,07,22,984.49
2021,10,24,07,23,984.46
2021,10,24,07,24,984.42
2021,10,24,07,25,984.39
2021,10,24,07,26,984.42
2021,10,24,07,27,984.39
2021,10,24,07,28,984.36
2021,10,24,07,29,984.32
2021,10,24,07,30,984.29
2021,10,24,07,31,984.28
2021,10,24,07,32,984.12
2021,10,24,07,33,984.08
2021,10,24,07,34,984.04
2021,10,24,07,35,983.95
2021,10,24,07,36,983.92
2021,10,24,07,37,983.92
2021,10,24,07,38,983.84
2021,10,24,07,39,983.75
2021,10,24,07,40,983.78
2021,10,24,07,41,983.75
2021,10,24,07,42,983.75
2021,10,24,07,43,983.71
2021,10,24,07,44,983.75
2021,10,24,07,45,983.64
2021,10,24,07,46,983.61
2021,10,24,07,47,983.37
2021,10,24,07,48,983.20
2021,10,24,07,49,983.20
2021,10,24,07,50,983.17
2021,10,24,07,51,983.24
2021,10,24,07,52,983.23
2021,10,24,07,53,983.14
2021,10,24,07,54,983.20
2021,10,24,07,55,983.20
2021,10,24,07,56,983.14
2021,10,24,07,57,983.17
2021,10,24,07,58,983.17
2021,10,24,07,59,983.23
2021,10,24,08,00,983.10
2021,10,24,08,01,983.07
2021,10,24,08,02,983.07
2021,10,24,08,03,983.00
2021,10,24,08,04,982.93
2021,10,24,08,05,982.97
2021,10,24,08,06,982.90
2021,10,24,08,07,982.90
2021,10,24,08,08,982.87
2021,10,24,08,09,982.80
2021,10,24,08,10,982.80
2021,10,24,08,11,982.89
2021,10,24,08,12,982.70
2021,10,24,08,13,982.73
2021,10,24,08,14,982.70
2021,10,24,08,15,982.59
2021,10,24,08,16,982.66
2021,10,24,08,17,982.66
2021,10,24,08,18,982.63
2021,10,24,08,19,982.63
2021,10,24,08,20,982.56
2021,10,24,08,21,982.53
2021,10,24,08,22,982.49
2021,10,24,08,23,982.46
2021,10,24,08,24,982.39
2021,10,24,08,25,982.32
2021,10,24,08,26,982.29
2021,10,24,08,27,982.29
2021,10,24,08,28,982.29
2021,10,24,08,29,982.26
2021,10,24,08,30,982.26
2021,10,24,08,31,982.29
2021,10,24,08,32,982.36
2021,10,24,08,33,982.29
2021,10,24,08,34,982.22
2021,10,24,08,35,982.22
2021,10,24,08,36,982.12
2021,10,24,08,37,982.02
2021,10,24,08,38,982.02
2021,10,24,08,39,981.99
2021,10,24,08,40,982.02
2021,10,24,08,41,982.05
2021,10,24,08,42,981.99
2021,10,24,08,43,981.95
2021,10,24,08,44,981.92
2021,10,24,08,45,981.92
2021,10,24,08,46,981.92
2021,10,24,08,47,981.85
2021,10,24,08,48,981.82
2021,10,24,08,49,981.82
2021,10,24,08,50,981.82
2021,10,24,08,51,981.85
2021,10,24,08,52,981.78
2021,10,24,08,53,981.85
2021,10,24,08,54,981.88
2021,10,24,08,55,981.92
2021,10,24,08,56,981.88
2021,10,24,08,57,981.85
2021,10,24,08,58,981.92
2021,10,24,08,59,981.92
2021,10,24,09,00,981.88
2021,10,24,09,01,981.88
2021,10,24,09,02,981.82
2021,10,24,09,03,981.82
2021,10,24,09,04,981.78
2021,10,24,09,05,981.82
2021,10,24,09,06,981.78
2021,10,24,09,07,981.82
2021,10,24,09,08,981.82
2021,10,24,09,09,981.85
2021,10,24,09,10,981.82
2021,10,24,09,11,981.82
2021,10,24,09,12,981.88
2021,10,24,09,13,981.75
2021,10,24,09,14,981.68
2021,10,24,09,15,981.71
2021,10,24,09,16,981.75
2021,10,24,09,17,981.75
2021,10,24,09,18,981.75
2021,10,24,09,19,981.82
2021,10,24,09,20,981.82
2021,10,24,09,21,981.82
2021,10,24,09,22,981.82
2021,10,24,09,23,981.82
2021,10,24,09,24,981.78
2021,10,24,09,25,981.82
2021,10,24,09,26,981.82
2021,10,24,09,27,981.82
2021,10,24,09,28,981.75
2021,10,24,09,29,981.65
2021,10,24,09,30,981.71
2021,10,24,09,31,981.71
2021,10,24,09,32,981.71
2021,10,24,09,33,981.75
2021,10,24,09,34,981.68
2021,10,24,09,35,981.71
2021,10,24,09,36,981.75
2021,10,24,09,37,981.71
2021,10,24,09,38,981.71
2021,10,24,09,39,981.65
2021,10,24,09,40,981.65
2021,10,24,09,41,981.71
2021,10,24,09,42,981.71
2021,10,24,09,43,981.71
2021,10,24,09,44,981.71
2021,10,24,09,45,981.71
2021,10,24,09,46,981.75
2021,10,24,09,47,981.71
2021,10,24,09,48,981.71
2021,10,24,09,49,981.71
2021,10,24,09,50,981.68
2021,10,24,09,51,981.68
2021,10,24,09,52,981.68
2021,10,24,09,53,981.68
2021,10,24,09,54,981.61
2021,10,24,09,55,981.58
2021,10,24,09,56,981.61
2021,10,24,09,57,981.55
2021,10,24,09,58,981.58
2021,10,24,09,59,981.61
2021,10,24,10,00,981.65
2021,10,24,10,01,981.65
2021,10,24,10,02,981.68
2021,10,24,10,03,981.68
2021,10,24,10,04,981.58
2021,10,24,10,05,981.51
2021,10,24,10,06,981.47
2021,10,24,10,07,981.38
2021,10,24,10,08,981.31
2021,10,24,10,09,981.31
2021,10,24,10,10,981.24
2021,10,24,10,11,981.17
2021,10,24,10,12,981.03
2021,10,24,10,13,980.83
2021,10,24,10,14,980.73
2021,10,24,10,15,980.56
2021,10,24,10,16,980.50
2021,10,24,10,17,980.53
2021,10,24,10,18,980.56
2021,10,24,10,19,980.60
2021,10,24,10,20,980.66
2021,10,24,10,21,980.63
2021,10,24,10,22,980.56
2021,10,24,10,23,980.56
2021,10,24,10,24,980.53
2021,10,24,10,25,980.53
2021,10,24,10,26,980.60
2021,10,24,10,27,980.63
2021,10,24,10,28,980.70
2021,10,24,10,29,980.70
2021,10,24,10,30,980.66
2021,10,24,10,31,980.60
2021,10,24,10,32,980.60
2021,10,24,10,33,980.66
2021,10,24,10,34,980.63
2021,10,24,10,35,980.66
2021,10,24,10,36,980.63
2021,10,24,10,37,980.66
2021,10,24,10,38,980.60
2021,10,24,10,39,980.60
2021,10,24,10,40,980.53
2021,10,24,10,41,980.50
2021,10,24,10,42,980.46
2021,10,24,10,43,980.36
2021,10,24,10,44,980.36
2021,10,24,10,45,980.33
2021,10,24,10,46,980.44
2021,10,24,10,47,980.57
2021,10,24,10,48,980.70
2021,10,24,10,49,980.73
2021,10,24,10,50,980.66
2021,10,24,10,51,980.60
2021,10,24,10,52,980.53
2021,10,24,10,53,980.53
2021,10,24,10,54,980.50
2021,10,24,10,55,980.39
2021,10,24,10,56,980.33
2021,10,24,10,57,980.29
2021,10,24,10,58,980.19
2021,10,24,10,59,980.12
2021,10,24,11,00,980.12
2021,10,24,11,01,980.06
2021,10,24,11,02,979.99
2021,10,24,11,03,979.91
2021,10,24,11,04,979.82
2021,10,24,11,05,979.95
2021,10,24,11,06,979.85
2021,10,24,11,07,979.95
2021,10,24,11,08,980.06
2021,10,24,11,09,980.12
2021,10,24,11,10,980.16
2021,10,24,11,11,980.16
2021,10,24,11,12,980.12
2021,10,24,11,13,980.19
2021,10,24,11,14,980.22
2021,10,24,11,15,980.29
2021,10,24,11,16,980.26
2021,10,24,11,17,980.29
2021,10,24,11,18,980.29
2021,10,24,11,19,980.29
2021,10,24,11,20,980.22
2021,10,24,11,21,980.19
2021,10,24,11,22,980.22
2021,10,24,11,23,980.22
2021,10,24,11,24,980.12
2021,10,24,11,25,980.19
2021,10,24,11,26,980.19
2021,10,24,11,27,980.16
2021,10,24,11,28,980.26
2021,10,24,11,29,980.22
2021,10,24,11,30,980.29
2021,10,24,11,31,980.22
2021,10,24,11,32,980.22
2021,10,24,11,33,980.26
2021,10,24,11,34,980.33
2021,10,24,11,35,980.36
2021,10,24,11,36,980.35
2021,10,24,11,37,980.26
2021,10,24,11,38,980.26
2021,10,24,11,39,980.16
2021,10,24,11,40,980.19
2021,10,24,11,41,980.22
2021,10,24,11,42,980.12
2021,10,24,11,43,980.06
2021,10,24,11,44,980.02
2021,10,24,11,45,980.06
2021,10,24,11,46,980.09
2021,10,24,11,47,980.06
2021,10,24,11,48,980.06
2021,10,24,11,49,980.09
2021,10,24,11,50,980.16
2021,10,24,11,51,980.22
2021,10,24,11,52,980.22
2021,10,24,11,53,980.19
2021,10,24,11,54,980.19
2021,10,24,11,55,980.16
2021,10,24,11,56,980.19
2021,10,24,11,57,980.19
2021,10,24,11,58,980.12
2021,10,24,11,59,980.19
2021,10,24,12,00,980.12
2021,10,24,12,01,980.09
2021,10,24,12,02,980.02
2021,10,24,12,03,979.98
2021,10,24,12,04,979.89
2021,10,24,12,05,979.65
2021,10,24,12,06,979.72
2021,10,24,12,07,979.72
2021,10,24,12,08,979.68
2021,10,24,12,09,979.75
2021,10,24,12,10,979.72
2021,10,24,12,11,979.75
2021,10,24,12,12,979.82
2021,10,24,12,13,979.82
2021,10,24,12,14,979.72
2021,10,24,12,15,979.75
2021,10,24,12,16,979.73
2021,10,24,12,17,979.85
2021,10,24,12,18,979.68
2021,10,24,12,19,979.75
2021,10,24,12,20,979.68
2021,10,24,12,21,979.65
2021,10,24,12,22,979.61
2021,10,24,12,23,979.51
2021,10,24,12,24,979.55
2021,10,24,12,25,979.55
2021,10,24,12,26,979.61
2021,10,24,12,27,979.65
2021,10,24,12,28,979.75
2021,10,24,12,29,979.62
2021,10,24,12,30,979.77
2021,10,24,12,31,979.65
2021,10,24,12,32,979.65
2021,10,24,12,33,979.65
2021,10,24,12,34,979.45
2021,10,24,12,35,979.45
2021,10,24,12,36,979.51
2021,10,24,12,37,979.48
2021,10,24,12,38,979.48
2021,10,24,12,39,979.51
2021,10,24,12,40,979.51
2021,10,24,12,41,979.61
2021,10,24,12,42,979.48
2021,10,24,12,43,979.55
2021,10,24,12,44,979.65
2021,10,24,12,45,979.52
2021,10,24,12,46,979.61
2021,10,24,12,47,979.45
2021,10,24,12,48,979.38
2021,10,24,12,49,979.28
2021,10,24,12,50,979.28
2021,10,24,12,51,979.28
2021,10,24,12,52,979.28
2021,10,24,12,53,979.21
2021,10,24,12,54,979.21
2021,10,24,12,55,979.28
2021,10,24,12,56,979.21
2021,10,24,12,57,979.28
2021,10,24,12,58,979.14
2021,10,24,12,59,979.24
2021,10,24,13,00,979.38
2021,10,24,13,01,979.45
2021,10,24,13,02,979.28
2021,10,24,13,03,979.21
2021,10,24,13,04,979.28
2021,10,24,13,05,979.24
2021,10,24,13,06,979.31
2021,10,24,13,07,979.28
2021,10,24,13,08,979.31
2021,10,24,13,09,979.34
2021,10,24,13,10,979.24
2021,10,24,13,11,979.31
2021,10,24,13,12,979.28
2021,10,24,13,13,979.28
2021,10,24,13,14,979.34
2021,10,24,13,15,979.32
2021,10,24,13,16,979.41
2021,10,24,13,17,979.41
2021,10,24,13,18,979.51
2021,10,24,13,19,979.45
2021,10,24,13,20,979.48
2021,10,24,13,21,979.45
2021,10,24,13,22,979.51
2021,10,24,13,23,979.51
2021,10,24,13,24,979.55
2021,10,24,13,25,979.56
2021,10,24,13,26,979.72
2021,10,24,13,27,979.72
2021,10,24,13,28,979.72
2021,10,24,13,29,979.92
2021,10,24,13,30,979.89
2021,10,24,13,31,979.85
2021,10,24,13,32,979.85
2021,10,24,13,33,979.89
2021,10,24,13,34,979.99
2021,10,24,13,35,980.02
2021,10,24,13,36,980.02
2021,10,24,13,37,980.02
2021,10,24,13,38,980.12
2021,10,24,13,39,980.16
2021,10,24,13,40,980.19
2021,10,24,13,41,980.22
2021,10,24,13,42,980.29
2021,10,24,13,43,980.33
2021,10,24,13,44,980.36
2021,10,24,13,45,980.43
2021,10,24,13,46,980.50
2021,10,24,13,47,980.40
2021,10,24,13,48,980.36
2021,10,24,13,49,980.36
2021,10,24,13,50,980.39
2021,10,24,13,51,980.39
2021,10,24,13,52,980.36
2021,10,24,13,53,980.29
2021,10,24,13,54,980.33
2021,10,24,13,55,980.36
2021,10,24,13,56,980.26
2021,10,24,13,57,980.22
2021,10,24,13,58,980.22
2021,10,24,13,59,980.19
2021,10,24,14,00,980.12
2021,10,24,14,01,980.02
2021,10,24,14,02,980.06
2021,10,24,14,03,980.02
2021,10,24,14,04,979.91
2021,10,24,14,05,979.68
2021,10,24,14,06,979.58
2021,10,24,14,07,979.58
2021,10,24,14,08,979.73
2021,10,24,14,09,979.95
2021,10,24,14,10,980.30
2021,10,24,14,11,980.60
2021,10,24,14,12,980.80
2021,10,24,14,13,980.97
2021,10,24,14,14,981.13
2021,10,24,14,15,981.31
2021,10,24,14,16,981.48
2021,10,24,14,17,981.44
2021,10,24,14,18,981.48
2021,10,24,14,19,981.48
2021,10,24,14,20,981.41
2021,10,24,14,21,981.30
2021,10,24,14,22,981.17
2021,10,24,14,23,981.10
2021,10,24,14,24,981.21
2021,10,24,14,25,981.21
2021,10,24,14,26,981.27
2021,10,24,14,27,981.31
2021,10,24,14,28,981.30
2021,10,24,14,29,981.14
2021,10,24,14,30,981.07
2021,10,24,14,31,980.83
2021,10,24,14,32,980.87
2021,10,24,14,33,980.80
2021,10,24,14,34,980.77
2021,10,24,14,35,980.66
2021,10,24,14,36,980.50
2021,10,24,14,37,980.36
2021,10,24,14,38,980.33
2021,10,24,14,39,980.26
2021,10,24,14,40,980.33
2021,10,24,14,41,980.56
2021,10,24,14,42,980.77
2021,10,24,14,43,980.87
2021,10,24,14,44,980.86
2021,10,24,14,45,980.70
2021,10,24,14,46,980.70
2021,10,24,14,47,980.66
2021,10,24,14,48,980.56
2021,10,24,14,49,980.53
2021,10,24,14,50,980.53
2021,10,24,14,51,980.56
2021,10,24,14,52,980.60
2021,10,24,14,53,980.60
2021,10,24,14,54,980.62
2021,10,24,14,55,980.53
2021,10,24,14,56,980.39
2021,10,24,14,57,980.46
2021,10,24,14,58,980.53
2021,10,24,14,59,980.63
2021,10,24,15,00,980.70
2021,10,24,15,01,980.57
2021,10,24,15,02,980.56
2021,10,24,15,03,980.56
2021,10,24,15,04,980.53
2021,10,24,15,05,980.63
2021,10,24,15,06,980.70
2021,10,24,15,07,980.66
2021,10,24,15,08,980.66
2021,10,24,15,09,980.66
2021,10,24,15,10,980.77
2021,10,24,15,11,980.90
2021,10,24,15,12,980.87
2021,10,24,15,13,980.80
2021,10,24,15,14,980.73
2021,10,24,15,15,980.66
2021,10,24,15,16,980.66
2021,10,24,15,17,980.70
2021,10,24,15,18,980.77
2021,10,24,15,19,980.87
2021,10,24,15,20,980.90
2021,10,24,15,21,980.94
2021,10,24,15,22,980.90
2021,10,24,15,23,980.83
2021,10,24,15,24,980.83
2021,10,24,15,25,980.90
2021,10,24,15,26,981.00
2021,10,24,15,27,981.04
2021,10,24,15,28,981.10
2021,10,24,15,29,981.17
2021,10,24,15,30,981.14
2021,10,24,15,31,981.14
2021,10,24,15,32,981.14
2021,10,24,15,33,981.14
2021,10,24,15,34,981.00
2021,10,24,15,35,981.07
2021,10,24,15,36,981.04
2021,10,24,15,37,980.94
2021,10,24,15,38,980.90
2021,10,24,15,39,980.87
2021,10,24,15,40,980.87
2021,10,24,15,41,980.83
2021,10,24,15,42,980.83
2021,10,24,15,43,980.87
2021,10,24,15,44,980.94
2021,10,24,15,45,981.04
2021,10,24,15,46,981.07
2021,10,24,15,47,981.17
2021,10,24,15,48,981.27
2021,10,24,15,49,981.34
2021,10,24,15,50,981.44
2021,10,24,15,51,981.48
2021,10,24,15,52,981.58
2021,10,24,15,53,981.52
2021,10,24,15,54,981.61
2021,10,24,15,55,981.58
2021,10,24,15,56,981.58
2021,10,24,15,57,981.58
2021,10,24,15,58,981.55
2021,10,24,15,59,981.48
2021,10,24,16,00,981.48
2021,10,24,16,01,981.41
2021,10,24,16,02,981.44
2021,10,24,16,03,981.38
2021,10,24,16,04,981.41
2021,10,24,16,05,981.41
2021,10,24,16,06,981.38
2021,10,24,16,07,981.44
2021,10,24,16,08,981.49
2021,10,24,16,09,981.61
2021,10,24,16,10,981.58
2021,10,24,16,11,981.51
2021,10,24,16,12,981.51
2021,10,24,16,13,981.48
2021,10,24,16,14,981.44
2021,10,24,16,15,981.51
2021,10,24,16,16,981.61
2021,10,24,16,17,981.48
2021,10,24,16,18,981.44
2021,10,24,16,19,981.44
2021,10,24,16,20,981.41
2021,10,24,16,21,981.38
2021,10,24,16,22,981.38
2021,10,24,16,23,981.44
2021,10,24,16,24,981.48
2021,10,24,16,25,981.51
2021,10,24,16,26,981.58
2021,10,24,16,27,981.61
2021,10,24,16,28,981.65
2021,10,24,16,29,981.61
2021,10,24,16,30,981.51
2021,10,24,16,31,981.55
2021,10,24,16,32,981.55
2021,10,24,16,33,981.61
2021,10,24,16,34,981.58
2021,10,24,16,35,981.55
2021,10,24,16,36,981.55